User: anonymous   Login
Location: Vigo di Fassa
(46.4167°N, 11.6667°E)
Time: 05:41:31
(UTC+00:00)
Language:

Cosmos 2278 Rocket - Orbit

View from above orbital plane
View from above orbital plane
View from above satellite
View from above satellite

Ground track
Ground track

The orbit data is extracted from the following two-line orbital elements,

1 23088U 94023B   21127.88150495  .00000130  00000-0  92200-4 0  9993
2 23088  70.9998 180.1673 0001217 122.7324 237.3916 14.14688510396190
Epoch (UTC): 07 May 2021 21:09:22
Eccentricity: 0.0001217
inclination: 70.9998°
perigee height: 842 km
apogee height: 844 km
right ascension of ascending node: 180.1673°
argument of perigee: 122.7324°
revolutions per day: 14.14688510
mean anomaly at epoch: 237.3916°
orbit number at epoch: 39619

The dashed part of the orbit path shows where the satellite is in the earth's shadow,  

DLR